Location: Ostrava
(49.8330°N, 18.2830°E)
Time: 09:07:22
(UTC+02:00)

Iridium 39 - Visible Passes

Search period start: 29 August 2016 00:00
Search period end: 08 September 2016 00:00
Orbit: 726 x 751 km, 86.4° (Epoch: 28 August)

Date Brightness Start Highest point End Pass type
(mag) Time Alt. Az. Time Alt. Az. Time Alt. Az.
29 Aug 8.3 01:15:10 10° NW 01:17:05 13° WNW 01:17:05 13° WNW visible
29 Aug 6.6 22:48:13 10° N 22:52:26 42° ENE 22:52:26 42° ENE visible
30 Aug 7.6 00:28:34 10° NNW 00:32:04 26° WNW 00:32:04 26° WNW visible
30 Aug 7.4 22:03:45 10° NNE 22:07:25 21° ENE 22:07:25 21° ENE visible
30 Aug 6.6 23:42:58 10° NNW 23:47:04 50° NW 23:47:04 50° NW visible
31 Aug 8.1 21:21:15 10° NE 21:21:51 10° ENE 21:22:25 10° ENE visible
31 Aug 6.2 22:57:49 10° N 23:02:03 57° NE 23:02:03 57° NE visible
01 Sep 8.0 00:38:51 10° NW 00:41:42 18° WNW 00:41:42 18° WNW visible
01 Sep 7.0 22:13:03 10° NNE 22:17:04 30° ENE 22:17:04 30° ENE visible
01 Sep 7.2 23:52:53 10° NNW 23:56:42 35° WNW 23:56:42 35° WNW visible
02 Sep 7.7 21:29:00 10° NNE 21:31:56 15° ENE 21:32:04 15° ENE visible
02 Sep 6.3 23:07:31 10° N 23:11:43 62° NNW 23:11:43 62° NNW visible
03 Sep 8.4 00:49:43 10° NW 00:51:21 12° WNW 00:51:21 12° WNW visible
03 Sep 6.5 22:22:32 10° N 22:26:43 43° ENE 22:26:43 43° ENE visible
04 Sep 7.7 00:02:57 10° NNW 00:06:22 25° WNW 00:06:22 25° WNW visible
04 Sep 7.3 21:38:01 10° NNE 21:41:44 22° ENE 21:41:44 22° ENE visible
04 Sep 6.7 23:17:19 10° NNW 23:21:23 48° NW 23:21:23 48° NW visible
05 Sep 8.0 20:55:05 10° NE 20:56:13 11° ENE 20:56:46 10° ENE visible
05 Sep 6.2 22:32:08 10° N 22:36:24 60° NNE 22:36:24 60° NNE visible
06 Sep 8.1 00:13:17 10° NW 00:16:03 17° WNW 00:16:03 17° WNW visible
06 Sep 6.9 21:47:21 10° NNE 21:51:26 32° ENE 21:51:26 32° ENE visible
06 Sep 7.2 23:27:14 10° NNW 23:31:05 34° WNW 23:31:05 34° WNW visible
07 Sep 7.6 21:03:14 10° NNE 21:06:17 16° ENE 21:06:28 16° ENE visible
07 Sep 6.2 22:41:50 10° N 22:46:07 64° NNW 22:46:07 64° NNW visible
